Weather History for Bryce Canyon, UT

Change the Weather History Date:

Wednesday, November 7, 2012

  Actual Average Record
Temperature  
Mean Temperature 43 °F -  
Max Temperature 63 °F 48 °F 66 °F (2006)
Min Temperature 23 °F 23 °F 10 °F (1974)
Degree Days  
Heating Degree Days 22    
Moisture  
Dew Point 18 °F    
Average Humidity 49    
Maximum Humidity 81    
Minimum Humidity 18    
Precipitation  
Precipitation 0.00 in - - ()
Sea Level Pressure  
Sea Level Pressure 30.09 in    
Wind  
Wind Speed 5 mph (SW)    
Max Wind Speed 15 mph    
Max Gust Speed -    
Visibility 10 miles    
Events      
Averages and records for this station are not official NWS values.
T = Trace of Precipitation, MM = Missing Value Source: NWS Daily Summary

Daily Weather History Graph

Daily Weather History Graph

Search for Another Location

Airport:

Trip Planner

Search our weather history database for the weather conditions in past years. The results will help you decide how hot, cold, wet, or windy it might be!

Date:

Astronomy

Nov. 07, 2012 Rise Set
Actual Time 7:00 AM MST 5:23 PM MST
Civil Twilight 6:33 AM MST 5:50 PM MST
Nautical Twilight 6:01 AM MST 6:22 PM MST
Astronomical Twilight 5:31 AM MST 6:52 PM MST
Moon 12:05 AM MST (11/7) 1:27 PM MST (11/7)
Length of Visible Light 11h 17m
Length of Day
10h 22m
Last Quarter, 42% of the Moon is Illuminated
Nov 7
Last Quarter
Nov 13
New
Nov 20
First Quarter
Nov 28
Full
Dec 6
Last Quarter

Hourly Weather History & Observations

Time (MST) Temp. Windchill Dew Point Humidity Pressure Visibility Wind Dir Wind Speed Gust Speed Precip Events Conditions
12:53 AM 28.0 °F 22.8 °F 19.0 °F 69% 30.15 in 10.0 mi West 4.6 mph - N/A   Clear
1:53 AM 25.0 °F - 18.0 °F 75% 30.16 in 10.0 mi Calm Calm - N/A   Clear
2:53 AM 26.1 °F - 18.0 °F 71% 30.14 in 10.0 mi Calm Calm - N/A   Clear
3:53 AM 28.0 °F 20.8 °F 19.0 °F 69% 30.12 in 10.0 mi West 6.9 mph - N/A   Clear
4:53 AM 23.0 °F - 17.1 °F 78% 30.17 in 10.0 mi Calm Calm - N/A   Clear
5:53 AM 23.0 °F - 17.1 °F 78% 30.21 in 10.0 mi Calm Calm - N/A   Clear
6:53 AM 23.0 °F 18.4 °F 18.0 °F 81% 30.26 in 10.0 mi WSW 3.5 mph - N/A   Clear
7:53 AM 30.0 °F 24.1 °F 19.9 °F 66% 30.24 in 10.0 mi West 5.8 mph - N/A   Clear
8:53 AM 42.1 °F 40.2 °F 23.0 °F 47% 30.19 in 10.0 mi West 3.5 mph - N/A   Clear
9:53 AM 54.0 °F - 19.9 °F 26% 30.13 in 10.0 mi SE 3.5 mph - N/A   Clear
10:53 AM 55.9 °F - 21.0 °F 26% 30.11 in 10.0 mi SE 12.7 mph - N/A   Clear
11:53 AM 57.0 °F - 21.0 °F 25% 30.07 in 10.0 mi SE 11.5 mph - N/A   Clear
12:53 PM 59.0 °F - 21.9 °F 24% 30.02 in 10.0 mi SE 12.7 mph - N/A   Clear
1:53 PM 62.1 °F - 21.9 °F 21% 29.99 in 10.0 mi SE 15.0 mph - N/A   Clear
2:53 PM 63.0 °F - 18.0 °F 18% 29.96 in 10.0 mi SSW 8.1 mph - N/A   Clear
4:53 PM 57.9 °F - 15.1 °F 19% 29.99 in 10.0 mi SW 13.8 mph - N/A   Clear
5:53 PM 50.0 °F - 17.1 °F 27% 30.03 in 10.0 mi SSW 11.5 mph - N/A   Clear
6:53 PM 37.0 °F 34.5 °F 14.0 °F 39% 30.12 in 10.0 mi WSW 3.5 mph - N/A   Clear
7:53 PM 32.0 °F 27.5 °F 14.0 °F 48% 30.10 in 10.0 mi WSW 4.6 mph - N/A   Clear
8:53 PM 32.0 °F - 14.0 °F 48% 30.04 in 10.0 mi Calm Calm - N/A   Clear
9:53 PM 28.9 °F 22.8 °F 15.1 °F 56% 29.99 in 10.0 mi West 5.8 mph - N/A   Clear
10:53 PM 26.1 °F - 14.0 °F 60% 29.99 in 10.0 mi Calm Calm - N/A   Clear
11:53 PM 24.1 °F - 12.9 °F 62% 29.98 in 10.0 mi Calm Calm - N/A   Clear